CZ-6A DEB

Satellite information

Favourite Embed

Satellite Type and Status

DEBRISIN ORBIT

Key statistics

Satellite CZ-6A DEB at a glance.

Uptime

494

Days in orbit

Revolutions

≈ 15.1

Per day

Orbit

LEO

Low Earth Orbit

Inclination

88.7

Latest

Satellite identification and parameters

Extended collection of information and parameters for CZ-6A DEB.

Object identification

Identified? True

Debris? True

Object name: CZ-6A DEB

International designator: 2024-140RH

Object number (NORAD): 61163

Object ID (CCSDS): 61163

Country: PEOPLES REPUBLIC OF CHINA (PRC)

Current information (Y/N): Y

RCS size: SMALL

Orbital parameters

Period: 95.18 minutes

Inclination: 88.6823 deg

SMA: 6905.451 km

Apoapsis: 618.301 km

Periapsis: 436.331 km

RAAN: 268.4039 deg

Eccentricy: 0.01317586

Argument of periapsis: 45.9832 deg

Mean anomaly: 315.2175 deg

Mean motion: 15.1291553 rev/day

Mean motion (dot): 0.00071074 rev/day2

B* drag term: 0.0032350264 1/REarth

Two-line elements (TLE)

Creation date: Dec. 12, 2025, 10:14 a.m.

Reference frame: TEME

Reference center: EARTH

Epoch: Dec. 12, 2025, 5:41 a.m. UTC

TLE line 0: 0 CZ-6A DEB

TLE line 1: 1 61163U 24140RH 25346.23733663 .00071074 00000-0 32350-2 0 9995

TLE line 2: 2 61163 88.6823 268.4039 0131759 45.9832 315.2175 15.12915530 71333

Live tracking on map

Real-time ground track for satellite CZ-6A DEB.

In-orbit conjunctions

A list of the most updated potential collisions computed for object CZ-6A DEB.

Target Orbit TCA Probability of collision Miss distance Type
SL-16 DEB SSO 2024-11-09 10:50:10 0.000152973 543.0 (m) DEBRIS
START 1 DEB LEO 2024-10-31 09:55:15 0.0002945705 354.0 (m) DEBRIS
CZ-6 R/B LEO 2024-10-25 00:36:25 0.0006002461 530.0 (m) ROCKET BODY

Associated space launch

18 Low Earth Orbit communication satellites with Ku, Q and V band payloads for the G60 constellation operated by Shanghai Spacecom Satellite Technology (SSST) with funding backed by the Shanghai local government. Initial constellation will consist of 1296 satellites by 2027 with long term plans to expand it to 12000 satellites.

CZ-6A DEB was lifted into orbit during the mission ‘Long March 6A | G60 Polar Group 01’, on board a Long March 6A space rocket.

The launch took place on Aug. 6, 2024, 6:42 a.m. from Launch Complex 9A.

For more information about the launch, click the button.

Launch to space Long March 6A | G60 Polar Group 01
Long March 6A | G60 Polar Group 01

Agency: N/A

Status: Launch Successful

Launch date: Aug. 6, 2024, 6:42 a.m. UTC

Rocket: Long March 6A

Launch pad: Launch Complex 9A

Location: Taiyuan Satellite Launch Center, People's Republic of China

...

Latest news about this satellite

News about space launch
Brightness of first Chinese broadband constellation satellites alarms astronomers

The first satellites of a Chinese broadband constellation are significantly brighter than those of Western systems, posing a new challenge for astronomers.

News about space launch
Chinese rocket stage breaks up into cloud of more than 700 pieces of space debris

HELSINKI — A Chinese Long March 6A rocket’s upper stage has fragmented into a cloud of over 700 pieces of space debris, adding to concerns about long-term orbital safety. China […]

News about space launch
China's Thousand Sails Megaconstellation Kicks Off with Dangerous Debris Field

China's Thousand Sails Megaconstellation Kicks Off with Dangerous Debris Field


Newsletter sign-up

Weekly statistics, charts and insights to help you stay on top of the space industry.